Date,TemperatureHighF,TemperatureAvgF,TemperatureLowF,DewpointHighF,DewpointAvgF,DewpointLowF,HumidityHigh,HumidityAvg,HumidityLow,PressureMaxIn,PressureMinIn,WindSpeedMaxMPH,WindSpeedAvgMPH,GustSpeedMaxMPH,PrecipitationSumIn
2013-3-20,38,34,25,-100,-100,-100,0,0,100,0.00,40.00,0,-999,0,0.00
2013-3-21,35,28,23,-100,-100,-100,0,0,100,0.00,40.00,0,-999,0,0.00
2013-3-22,40,32,25,-100,-100,-100,0,0,100,0.00,40.00,0,-999,0,0.00
2013-3-23,42,34,27,-100,-100,-100,0,0,100,0.00,40.00,0,-999,0,0.00
2013-3-24,46,37,30,-100,-100,-100,0,0,100,0.00,40.00,0,-999,0,0.00
2013-3-25,42,35,29,-100,-100,-100,0,0,100,0.00,40.00,0,-999,0,0.00
2013-3-26,47,38,28,-100,-100,-100,0,0,100,0.00,40.00,0,-999,0,0.00
2013-3-27,50,39,23,-100,-100,-100,0,0,100,0.00,40.00,0,-999,0,0.00
2013-3-28,47,41,35,-100,-100,-100,0,0,100,0.00,40.00,0,-999,0,0.00
2013-3-29,56,43,29,-100,-100,-100,0,0,100,0.00,40.00,0,-999,0,0.00
2013-3-30,55,45,32,-100,-100,-100,0,0,100,0.00,40.00,0,-999,0,0.00
2013-3-31,58,42,25,-100,-100,-100,0,0,100,0.00,40.00,0,-999,0,0.04
2013-4-1,60,46,34,-100,-100,-100,0,0,100,0.00,40.00,0,-999,0,0.23
2013-4-2,39,33,27,-100,-100,-100,0,0,100,0.00,40.00,0,-999,0,0.02
2013-4-3,43,35,29,-100,-100,-100,0,0,100,0.00,40.00,0,-999,0,0.00
2013-4-4,53,41,26,-100,-100,-100,0,0,100,0.00,40.00,0,-999,0,0.00
2013-4-5,59,44,36,-100,-100,-100,0,0,100,0.00,40.00,0,-999,0,0.00
2013-4-6,45,37,28,-100,-100,-100,0,0,100,0.00,40.00,0,-999,0,0.00
2013-4-7,53,39,24,-100,-100,-100,0,0,100,0.00,40.00,0,-999,0,0.00
2013-4-8,65,52,41,-100,-100,-100,0,0,100,0.00,40.00,0,-999,0,0.00
2013-4-9,71,57,46,-100,-100,-100,0,0,100,0.00,40.00,0,-999,0,0.00
2013-4-10,65,53,44,-100,-100,-100,0,0,100,0.00,40.00,0,-999,0,0.14
2013-4-11,53,47,40,-100,-100,-100,0,0,100,0.00,40.00,0,-999,0,0.04
2013-4-12,40,38,36,-100,-100,-100,0,0,100,0.00,40.00,0,-999,0,0.41
2013-4-13,52,43,35,-100,-100,-100,0,0,100,0.00,40.00,0,-999,0,0.07
2013-4-14,51,43,33,-100,-100,-100,0,0,100,0.00,40.00,0,-999,0,0.03
2013-4-15,57,43,28,-100,-100,-100,0,0,100,0.00,40.00,0,-999,0,0.00
2013-4-16,64,49,32,-100,-100,-100,0,0,100,0.00,40.00,0,-999,0,0.00
2013-4-17,66,57,44,-100,-100,-100,0,0,100,0.00,40.00,0,-999,0,0.00
2013-4-18,60,49,33,-100,-100,-100,0,0,100,0.00,40.00,0,-999,0,0.00
2013-4-19,72,61,51,-100,-100,-100,0,0,100,0.00,40.00,0,-999,0,0.00
2013-4-20,63,53,44,-100,-100,-100,0,0,100,0.00,40.00,0,-999,0,0.73
2013-4-21,51,42,32,-100,-100,-100,0,0,100,0.00,40.00,0,-999,0,0.02
2013-4-22,51,41,29,-100,-100,-100,0,0,100,0.00,40.00,0,-999,0,0.00
2013-4-23,41,39,37,-100,-100,-100,0,0,100,0.00,40.00,0,-999,0,0.04
2013-4-24,73,54,40,-100,-100,-100,0,0,100,0.00,40.00,0,-999,0,0.01
2013-4-25,62,53,41,-100,-100,-100,0,0,100,0.00,40.00,0,-999,0,0.02
2013-4-26,61,47,30,-100,-100,-100,0,0,100,0.00,40.00,0,-999,0,0.01
2013-4-27,63,49,32,-100,-100,-100,0,0,100,0.00,40.00,0,-999,0,0.00
2013-4-28,68,52,34,-100,-100,-100,0,0,100,0.00,40.00,0,-999,0,0.00
2013-4-29,66,55,42,-100,-100,-100,0,0,100,0.00,40.00,0,-999,0,0.00
2013-4-30,69,55,40,-100,-100,-100,0,0,100,0.00,40.00,0,-999,0,0.00
2013-5-1,69,53,32,-100,-100,-100,0,0,100,0.00,40.00,0,-999,0,0.00
2013-5-2,77,56,38,-100,-100,-100,0,0,100,0.00,40.00,0,-999,0,0.00
2013-5-3,59,49,37,-100,-100,-100,0,0,100,0.00,40.00,0,-999,0,0.00
2013-5-4,61,49,35,-100,-100,-100,0,0,100,0.00,40.00,0,-999,0,0.00
2013-5-5,63,48,32,-100,-100,-100,0,0,100,0.00,40.00,0,-999,0,0.00
2013-5-6,72,56,39,-100,-100,-100,0,0,100,0.00,40.00,0,-999,0,0.00
2013-5-7,75,60,40,-100,-100,-100,0,0,100,0.00,40.00,0,-999,0,0.00
2013-5-8,68,60,52,-100,-100,-100,0,0,100,0.00,40.00,0,-999,0,0.61
2013-5-9,67,59,55,-100,-100,-100,0,0,100,0.00,40.00,0,-999,0,1.24
2013-5-10,79,66,53,-100,-100,-100,0,0,100,0.00,40.00,0,-999,0,1.06
2013-5-11,68,62,57,-100,-100,-100,0,0,100,0.00,40.00,0,-999,0,0.08
2013-5-12,70,60,45,-100,-100,-100,0,0,100,0.00,40.00,0,-999,0,0.10
2013-5-13,58,48,36,-100,-100,-100,0,0,100,0.00,40.00,0,-999,0,0.02
2013-5-14,56,46,33,-100,-100,-100,0,0,100,0.00,40.00,0,-999,0,0.00
2013-5-15,62,47,31,-100,-100,-100,0,0,100,0.00,40.00,0,-999,0,0.03
2013-5-16,80,64,48,-100,-100,-100,0,0,100,0.00,40.00,0,-999,0,0.01
2013-5-17,68,58,44,-100,-100,-100,0,0,100,0.00,40.00,0,-999,0,0.00
2013-5-18,71,58,39,-100,-100,-100,0,0,100,0.00,40.00,0,-999,0,0.00
2013-5-19,69,57,44,-100,-100,-100,0,0,100,0.00,40.00,0,-999,0,0.09
2013-5-20,82,67,54,-100,-100,-100,0,0,100,0.00,40.00,0,-999,0,0.11
2013-5-21,87,66,51,-100,-100,-100,0,0,100,0.00,40.00,0,-999,0,0.28
2013-5-22,73,60,50,-100,-100,-100,0,0,100,0.00,40.00,0,-999,0,0.14
2013-5-23,56,56,56,-100,-100,-100,0,0,100,0.00,40.00,0,-999,0,0.00
2013-5-24,69,62,48,-100,-100,-100,0,0,100,0.00,40.00,0,-999,0,0.30
2013-5-25,50,46,40,-100,-100,-100,0,0,100,0.00,40.00,0,-999,0,0.54
2013-5-26,58,48,39,-100,-100,-100,0,0,100,0.00,40.00,0,-999,0,0.07
2013-5-27,70,55,36,-100,-100,-100,0,0,100,0.00,40.00,0,-999,0,0.00
2013-5-28,77,58,38,-100,-100,-100,0,0,100,0.00,40.00,0,-999,0,0.00
2013-5-29,76,64,57,-100,-100,-100,0,0,100,0.00,40.00,0,-999,0,1.19
2013-5-30,87,74,59,-100,-100,-100,0,0,100,0.00,40.00,0,-999,0,0.43
2013-5-31,93,78,61,-100,-100,-100,0,0,100,0.00,40.00,0,-999,0,0.01
2013-6-1,89,76,61,-100,-100,-100,0,0,100,0.00,40.00,0,-999,0,0.00
2013-6-2,86,75,66,-100,-100,-100,0,0,100,0.00,40.00,0,-999,0,0.00
2013-6-3,76,68,64,-100,-100,-100,0,0,100,0.00,40.00,0,-999,0,0.56
2013-6-4,70,61,46,-100,-100,-100,0,0,100,0.00,40.00,0,-999,0,0.04
2013-6-5,74,60,44,-100,-100,-100,0,0,100,0.00,40.00,0,-999,0,0.00
2013-6-6,71,61,49,-100,-100,-100,0,0,100,0.00,40.00,0,-999,0,0.01
2013-6-7,59,55,52,-100,-100,-100,0,0,100,0.00,40.00,0,-999,0,3.07
2013-6-8,76,61,52,-100,-100,-100,0,0,100,0.00,40.00,0,-999,0,2.65
2013-6-9,79,66,52,-100,-100,-100,0,0,100,0.00,40.00,0,-999,0,0.01
2013-6-10,69,60,51,-100,-100,-100,0,0,100,0.00,40.00,0,-999,0,0.80
2013-6-11,65,58,56,-100,-100,-100,0,0,100,0.00,40.00,0,-999,0,2.09
2013-6-12,69,62,53,-100,-100,-100,0,0,100,0.00,40.00,0,-999,0,0.71
2013-6-13,60,53,47,-100,-100,-100,0,0,100,0.00,40.00,0,-999,0,0.91
2013-6-14,71,58,50,-100,-100,-100,0,0,100,0.00,40.00,0,-999,0,1.35
2013-6-15,77,66,50,-100,-100,-100,0,0,100,0.00,40.00,0,-999,0,0.03
2013-6-16,74,62,47,-100,-100,-100,0,0,100,0.00,40.00,0,-999,0,0.00
2013-6-17,83,69,56,-100,-100,-100,0,0,100,0.00,40.00,0,-999,0,0.60
2013-6-18,77,63,57,-100,-100,-100,0,0,100,0.00,40.00,0,-999,0,1.77
2013-6-19,73,62,53,-100,-100,-100,0,0,100,0.00,40.00,0,-999,0,0.07
2013-6-20,77,62,47,-100,-100,-100,0,0,100,0.00,40.00,0,-999,0,0.01
2013-6-22,83,76,66,-100,-100,-100,0,0,100,0.00,40.00,0,-999,0,0.00
2013-6-23,88,75,61,-100,-100,-100,0,0,100,0.00,40.00,0,-999,0,0.00
2013-6-24,92,79,68,-100,-100,-100,0,0,100,0.00,40.00,0,-999,0,0.03
2013-6-25,90,76,65,-100,-100,-100,0,0,100,0.00,40.00,0,-999,0,0.27
2013-6-26,86,76,67,-100,-100,-100,0,0,100,0.00,40.00,0,-999,0,0.03
2013-6-27,70,66,63,-100,-100,-100,0,0,100,0.00,40.00,0,-999,0,0.21
2013-6-28,80,70,63,-100,-100,-100,0,0,100,0.00,40.00,0,-999,0,0.32
2013-6-29,81,73,69,-100,-100,-100,0,0,100,0.00,40.00,0,-999,0,0.01
2013-6-30,82,74,69,-100,-100,-100,0,0,100,0.00,40.00,0,-999,0,0.00
2013-7-1,80,73,70,-100,-100,-100,0,0,100,0.00,40.00,0,-999,0,0.05
2013-7-2,81,76,72,-100,-100,-100,0,0,100,0.00,40.00,0,-999,0,0.01
2013-7-3,86,76,68,-100,-100,-100,0,0,100,0.00,40.00,0,-999,0,0.00
2013-7-4,90,80,71,-100,-100,-100,0,0,100,0.00,40.00,0,-999,0,0.00
2013-7-5,92,82,71,-100,-100,-100,0,0,100,0.00,40.00,0,-999,0,0.00
2013-7-6,91,87,73,-100,-100,-100,0,0,100,0.00,40.00,0,-999,0,0.00
2013-7-7,93,78,68,-100,-100,-100,0,0,100,0.00,40.00,0,-999,0,0.64
2013-7-8,89,77,68,-100,-100,-100,0,0,100,0.00,40.00,0,-999,0,0.63
2013-7-9,76,70,66,-100,-100,-100,0,0,100,0.00,40.00,0,-999,0,0.05
2013-7-10,83,73,67,-100,-100,-100,0,0,100,0.00,40.00,0,-999,0,0.05
2013-7-11,81,73,68,-100,-100,-100,0,0,100,0.00,40.00,0,-999,0,0.37
2013-7-12,74,69,65,-100,-100,-100,0,0,100,0.00,40.00,0,-999,0,0.13
2013-7-13,74,68,63,-100,-100,-100,0,0,100,0.00,40.00,0,-999,0,0.04
2013-7-14,89,79,70,-100,-100,-100,0,0,100,0.00,40.00,0,-999,0,0.01
2013-7-15,91,79,69,-100,-100,-100,0,0,100,0.00,40.00,0,-999,0,0.00
2013-7-16,90,79,66,-100,-100,-100,0,0,100,0.00,40.00,0,-999,0,0.00
2013-7-17,92,80,68,-100,-100,-100,0,0,100,0.00,40.00,0,-999,0,0.00
2013-7-18,94,83,72,-100,-100,-100,0,0,100,0.00,40.00,0,-999,0,0.00
2013-7-19,94,83,73,-100,-100,-100,0,0,100,0.00,40.00,0,-999,0,0.00
2013-7-20,92,82,72,-100,-100,-100,0,0,100,0.00,40.00,0,-999,0,0.00
2013-7-21,85,75,68,-100,-100,-100,0,0,100,0.00,40.00,0,-999,0,0.00
2013-7-22,83,73,64,-100,-100,-100,0,0,100,0.00,40.00,0,-999,0,0.00
2013-7-23,84,72,69,-100,-100,-100,0,0,100,0.00,40.00,0,-999,0,0.90
2013-7-24,83,75,67,-100,-100,-100,0,0,100,0.00,40.00,0,-999,0,0.04
2013-7-25,68,58,56,-100,-100,-100,0,0,100,0.00,40.00,0,-999,0,0.82
2013-7-26,71,62,58,-100,-100,-100,0,0,100,0.00,40.00,0,-999,0,0.48
2013-7-27,81,69,56,-100,-100,-100,0,0,100,0.00,40.00,0,-999,0,0.01
2013-7-28,83,72,62,-100,-100,-100,0,0,100,0.00,40.00,0,-999,0,0.00
2013-7-29,82,72,64,-100,-100,-100,0,0,100,0.00,40.00,0,-999,0,0.00
2013-7-30,81,70,58,-100,-100,-100,0,0,100,0.00,40.00,0,-999,0,0.00
2013-7-31,81,71,57,-100,-100,-100,0,0,100,0.00,40.00,0,-999,0,0.00
2013-8-1,76,66,58,-100,-100,-100,0,0,100,0.00,40.00,0,-999,0,0.00
2013-8-2,81,70,64,-100,-100,-100,0,0,100,0.00,40.00,0,-999,0,0.15
2013-8-3,77,69,61,-100,-100,-100,0,0,100,0.00,40.00,0,-999,0,0.02
2013-8-4,79,66,54,-100,-100,-100,0,0,100,0.00,40.00,0,-999,0,0.00
2013-8-5,73,62,51,-100,-100,-100,0,0,100,0.00,40.00,0,-999,0,0.00
2013-8-6,77,62,46,-100,-100,-100,0,0,100,0.00,40.00,0,-999,0,0.00
2013-8-7,76,64,50,-100,-100,-100,0,0,100,0.00,40.00,0,-999,0,0.00
2013-8-8,77,70,63,-100,-100,-100,0,0,100,0.00,40.00,0,-999,0,0.16
2013-8-9,74,72,69,-100,-100,-100,0,0,100,0.00,40.00,0,-999,0,1.35
2013-8-10,81,72,57,-100,-100,-100,0,0,100,0.00,40.00,0,-999,0,0.08
2013-8-11,78,64,50,-100,-100,-100,0,0,100,0.00,40.00,0,-999,0,0.00
2013-8-12,82,68,56,-100,-100,-100,0,0,100,0.00,40.00,0,-999,0,0.00
2013-8-13,73,65,60,-100,-100,-100,0,0,100,0.00,40.00,0,-999,0,0.01
2013-8-14,72,65,55,-100,-100,-100,0,0,100,0.00,40.00,0,-999,0,0.01
2013-8-15,76,61,48,-100,-100,-100,0,0,100,0.00,40.00,0,-999,0,0.00
2013-8-16,78,64,49,-100,-100,-100,0,0,100,0.00,40.00,0,-999,0,0.00
2013-8-17,79,66,50,-100,-100,-100,0,0,100,0.00,40.00,0,-999,0,0.00
2013-8-18,77,66,55,-100,-100,-100,0,0,100,0.00,40.00,0,-999,0,0.00
2013-8-19,80,67,55,-100,-100,-100,0,0,100,0.00,40.00,0,-999,0,0.00
2013-8-20,83,71,58,-100,-100,-100,0,0,100,0.00,40.00,0,-999,0,0.00
2013-8-21,86,72,57,-100,-100,-100,0,0,100,0.00,40.00,0,-999,0,0.00
2013-8-22,81,72,60,-100,-100,-100,0,0,100,0.00,40.00,0,-999,0,0.00
2013-8-23,78,70,57,-100,-100,-100,0,0,100,0.00,40.00,0,-999,0,0.00
2013-8-24,75,62,49,-100,-100,-100,0,0,100,0.00,40.00,0,-999,0,0.00
2013-8-25,81,65,46,-100,-100,-100,0,0,100,0.00,40.00,0,-999,0,0.00
2013-8-26,79,69,61,-100,-100,-100,0,0,100,0.00,40.00,0,-999,0,0.04
2013-8-27,81,70,67,-100,-100,-100,0,0,100,0.00,40.00,0,-999,0,0.57
2013-8-28,84,78,67,-100,-100,-100,0,0,100,0.00,40.00,0,-999,0,0.00
2013-8-29,67,63,59,-100,-100,-100,0,0,100,0.00,40.00,0,-999,0,0.02
2013-8-30,80,67,59,-100,-100,-100,0,0,100,0.00,40.00,0,-999,0,0.01
2013-8-31,77,72,65,-100,-100,-100,0,0,100,0.00,40.00,0,-999,0,0.01
2013-9-1,77,72,67,-100,-100,-100,0,0,100,0.00,40.00,0,-999,0,0.13
2013-9-2,79,73,70,-100,-100,-100,0,0,100,0.00,40.00,0,-999,0,0.32
2013-9-3,78,70,60,-100,-100,-100,0,0,100,0.00,40.00,0,-999,0,0.15
2013-9-4,78,66,55,-100,-100,-100,0,0,100,0.00,40.00,0,-999,0,0.01
2013-9-5,68,60,47,-100,-100,-100,0,0,100,0.00,40.00,0,-999,0,0.07
2013-9-6,67,54,40,-100,-100,-100,0,0,100,0.00,40.00,0,-999,0,0.07
2013-9-7,77,62,43,-100,-100,-100,0,0,100,0.00,40.00,0,-999,0,0.00
2013-9-8,74,63,46,-100,-100,-100,0,0,100,0.00,40.00,0,-999,0,0.00
2013-9-9,67,54,38,-100,-100,-100,0,0,100,0.00,40.00,0,-999,0,0.00
2013-9-10,73,63,51,-100,-100,-100,0,0,100,0.00,40.00,0,-999,0,0.04
2013-9-11,92,78,66,-100,-100,-100,0,0,100,0.00,40.00,0,-999,0,0.02
2013-9-12,85,75,67,-100,-100,-100,0,0,100,0.00,40.00,0,-999,0,0.49
2013-9-13,78,68,59,-100,-100,-100,0,0,100,0.00,40.00,0,-999,0,0.58
2013-9-14,67,59,50,-100,-100,-100,0,0,100,0.00,40.00,0,-999,0,0.01
2013-9-15,70,54,43,-100,-100,-100,0,0,100,0.00,40.00,0,-999,0,0.00
2013-9-16,65,56,48,-100,-100,-100,0,0,100,0.00,40.00,0,-999,0,0.03
2013-9-17,60,45,37,-100,-100,-100,0,0,100,0.00,40.00,0,-999,0,0.02
2013-9-18,49,38,34,-100,-100,-100,0,0,100,0.00,40.00,0,-999,0,0.00
2013-9-19,68,49,41,-100,-100,-100,0,0,100,0.00,40.00,0,-999,0,0.00
2013-9-20,77,66,44,-100,-100,-100,0,0,100,0.00,40.00,0,-999,0,0.00
2013-9-21,72,63,51,-100,-100,-100,0,0,100,0.00,40.00,0,-999,0,0.00
2013-9-22,69,63,48,-100,-100,-100,0,0,100,0.00,40.00,0,-999,0,0.67
2013-9-23,62,51,41,-100,-100,-100,0,0,100,0.00,40.00,0,-999,0,0.04
2013-9-24,65,51,37,-100,-100,-100,0,0,100,0.00,40.00,0,-999,0,0.00
2013-9-25,67,54,39,-100,-100,-100,0,0,100,0.00,40.00,0,-999,0,0.00
2013-9-26,63,55,48,-100,-100,-100,0,0,100,0.00,40.00,0,-999,0,0.00
2013-9-27,63,55,46,-100,-100,-100,0,0,100,0.00,40.00,0,-999,0,0.00
2013-9-28,71,55,40,-100,-100,-100,0,0,100,0.00,40.00,0,-999,0,0.00
2013-9-29,67,52,40,-100,-100,-100,0,0,100,0.00,40.00,0,-999,0,0.00
2013-9-30,66,53,44,-100,-100,-100,0,0,100,0.00,40.00,0,-999,0,0.00
2013-10-1,61,56,45,-100,-100,-100,0,0,100,0.00,40.00,0,-999,0,0.00
2013-10-2,78,62,47,-100,-100,-100,0,0,100,0.00,40.00,0,-999,0,0.00
2013-10-3,77,59,44,-100,-100,-100,0,0,100,0.00,40.00,0,-999,0,0.00
2013-10-4,62,53,45,-100,-100,-100,0,0,100,0.00,40.00,0,-999,0,1.23
2013-10-5,68,61,55,-100,-100,-100,0,0,100,0.00,40.00,0,-999,0,0.14
2013-10-6,59,56,55,-100,-100,-100,0,0,100,0.00,40.00,0,-999,0,0.68
2013-10-7,75,63,55,-100,-100,-100,0,0,100,0.00,40.00,0,-999,0,0.40
2013-10-8,65,54,42,-100,-100,-100,0,0,100,0.00,40.00,0,-999,0,0.32
2013-10-9,61,48,39,-100,-100,-100,0,0,100,0.00,40.00,0,-999,0,0.00
2013-10-10,61,50,40,-100,-100,-100,0,0,100,0.00,40.00,0,-999,0,0.00
2013-10-11,68,56,49,-100,-100,-100,0,0,100,0.00,40.00,0,-999,0,0.00
2013-10-12,60,53,44,-100,-100,-100,0,0,100,0.00,40.00,0,-999,0,0.01
2013-10-13,58,51,38,-100,-100,-100,0,0,100,0.00,40.00,0,-999,0,0.01
2013-10-14,63,47,34,-100,-100,-100,0,0,100,0.00,40.00,0,-999,0,0.00
2013-10-15,66,55,44,-100,-100,-100,0,0,100,0.00,40.00,0,-999,0,0.00
2013-10-16,59,53,45,-100,-100,-100,0,0,100,0.00,40.00,0,-999,0,0.00
2013-10-17,70,58,48,-100,-100,-100,0,0,100,0.00,40.00,0,-999,0,0.01
2013-10-18,65,59,42,-100,-100,-100,0,0,100,0.00,40.00,0,-999,0,0.05
2013-10-19,65,50,35,-100,-100,-100,0,0,100,0.00,40.00,0,-999,0,0.01
2013-10-20,60,51,36,-100,-100,-100,0,0,100,0.00,40.00,0,-999,0,0.02
2013-10-21,66,48,33,-100,-100,-100,0,0,100,0.00,40.00,0,-999,0,0.01
2013-10-22,65,51,35,-100,-100,-100,0,0,100,0.00,40.00,0,-999,0,0.01
2013-10-23,49,41,32,-100,-100,-100,0,0,100,0.00,40.00,0,-999,0,0.01
2013-10-24,51,42,32,-100,-100,-100,0,0,100,0.00,40.00,0,-999,0,0.00
2013-10-25,49,37,27,-100,-100,-100,0,0,100,0.00,40.00,0,-999,0,0.00
2013-10-26,53,39,25,-100,-100,-100,0,0,100,0.00,40.00,0,-999,0,0.00
2013-10-27,54,45,32,-100,-100,-100,0,0,100,0.00,40.00,0,-999,0,0.01
2013-10-28,57,42,27,-100,-100,-100,0,0,100,0.00,40.00,0,-999,0,0.01
2013-10-29,48,36,27,-100,-100,-100,0,0,100,0.00,40.00,0,-999,0,0.00
2013-10-30,54,38,27,-100,-100,-100,0,0,100,0.00,40.00,0,-999,0,0.00
2013-10-31,61,45,30,-100,-100,-100,0,0,100,0.00,40.00,0,-999,0,0.04
2013-11-1,67,62,56,-100,-100,-100,0,0,100,0.00,40.00,0,-999,0,0.20
2013-11-2,66,54,43,-100,-100,-100,0,0,100,0.00,40.00,0,-999,0,0.08
2013-11-3,50,41,32,-100,-100,-100,0,0,100,0.00,40.00,0,-999,0,0.00
2013-11-4,41,31,23,-100,-100,-100,0,0,100,0.00,40.00,0,-999,0,0.00
2013-11-5,50,35,21,-100,-100,-100,0,0,100,0.00,40.00,0,-999,0,0.00
2013-11-6,59,47,34,-100,-100,-100,0,0,100,0.00,40.00,0,-999,0,0.00
2013-11-7,64,52,36,-100,-100,-100,0,0,100,0.00,40.00,0,-999,0,0.25
2013-11-8,47,37,27,-100,-100,-100,0,0,100,0.00,40.00,0,-999,0,0.01
2013-11-9,44,34,24,-100,-100,-100,0,0,100,0.00,40.00,0,-999,0,0.00
2013-11-10,54,43,36,-100,-100,-100,0,0,100,0.00,40.00,0,-999,0,0.04
2013-11-11,50,44,37,-100,-100,-100,0,0,100,0.00,40.00,0,-999,0,0.01
2013-11-12,47,36,26,-100,-100,-100,0,0,100,0.00,40.00,0,-999,0,0.06
2013-11-13,35,26,18,-100,-100,-100,0,0,100,0.00,40.00,0,-999,0,0.01
2013-11-14,50,37,24,-100,-100,-100,0,0,100,0.00,40.00,0,-999,0,0.00
2013-11-15,59,49,33,-100,-100,-100,0,0,100,0.00,40.00,0,-999,0,0.00
2013-11-16,58,44,30,-100,-100,-100,0,0,100,0.00,40.00,0,-999,0,0.00
2013-11-17,56,45,29,-100,-100,-100,0,0,100,0.00,40.00,0,-999,0,0.06
2013-11-18,63,59,47,-100,-100,-100,0,0,100,0.00,40.00,0,-999,0,0.33
2013-11-19,47,40,31,-100,-100,-100,0,0,100,0.00,40.00,0,-999,0,0.01
2013-11-20,40,30,20,-100,-100,-100,0,0,100,0.00,40.00,0,-999,0,0.00
2013-11-21,46,30,17,-100,-100,-100,0,0,100,0.00,40.00,0,-999,0,0.00
2013-11-22,48,42,34,-100,-100,-100,0,0,100,0.00,40.00,0,-999,0,0.10
2013-11-23,46,40,28,-100,-100,-100,0,0,100,0.00,40.00,0,-999,0,0.01
2013-11-24,28,23,20,-100,-100,-100,0,0,100,0.00,40.00,0,-999,0,0.00
2013-11-25,32,24,15,-100,-100,-100,0,0,100,0.00,40.00,0,-999,0,0.00
2013-11-26,40,34,30,-100,-100,-100,0,0,100,0.00,40.00,0,-999,0,0.12
2013-11-27,60,49,34,-100,-100,-100,0,0,100,0.00,40.00,0,-999,0,1.78
2013-11-28,35,29,21,-100,-100,-100,0,0,100,0.00,40.00,0,-999,0,0.11
2013-11-29,34,27,18,-100,-100,-100,0,0,100,0.00,40.00,0,-999,0,0.00
2013-11-30,32,22,11,-100,-100,-100,0,0,100,0.00,40.00,0,-999,0,0.00
2013-12-1,35,32,27,-100,-100,-100,0,0,100,0.00,40.00,0,-999,0,0.07
2013-12-2,39,35,30,-100,-100,-100,0,0,100,0.00,40.00,0,-999,0,0.02
2013-12-3,49,37,28,-100,-100,-100,0,0,100,0.00,40.00,0,-999,0,0.00
2013-12-4,46,32,24,-100,-100,-100,0,0,100,0.00,40.00,0,-999,0,0.00
2013-12-5,54,38,27,-100,-100,-100,0,0,100,0.00,40.00,0,-999,0,0.00
2013-12-6,55,48,34,-100,-100,-100,0,0,100,0.00,40.00,0,-999,0,0.42
2013-12-7,38,32,24,-100,-100,-100,0,0,100,0.00,40.00,0,-999,0,0.57
2013-12-8,30,26,18,-100,-100,-100,0,0,100,0.00,40.00,0,-999,0,0.01
2013-12-9,34,30,24,-100,-100,-100,0,0,100,0.00,40.00,0,-999,0,0.24
2013-12-10,32,29,21,-100,-100,-100,0,0,100,0.00,40.00,0,-999,0,0.09
2013-12-11,29,23,17,-100,-100,-100,0,0,100,0.00,40.00,0,-999,0,0.02
2013-12-12,24,18,8,-100,-100,-100,0,0,100,0.00,40.00,0,-999,0,0.00
2013-12-13,29,20,8,-100,-100,-100,0,0,100,0.00,40.00,0,-999,0,0.00
2013-12-14,22,14,11,-100,-100,-100,0,0,100,0.00,40.00,0,-999,0,0.29
2013-12-15,33,26,18,-100,-100,-100,0,0,100,0.00,40.00,0,-999,0,0.92
2013-12-16,28,20,7,-100,-100,-100,0,0,100,0.00,40.00,0,-999,0,0.01
2013-12-17,18,10,-3,-100,-100,-100,0,0,100,0.00,40.00,0,-999,0,0.31
2013-12-18,29,22,16,-100,-100,-100,0,0,100,0.00,40.00,0,-999,0,0.15
2013-12-19,41,30,15,-100,-100,-100,0,0,100,0.00,40.00,0,-999,0,0.00
2013-12-20,52,38,27,-100,-100,-100,0,0,100,0.00,40.00,0,-999,0,0.00
2013-12-21,57,45,34,-100,-100,-100,0,0,100,0.00,40.00,0,-999,0,0.00
2013-12-22,63,53,36,-100,-100,-100,0,0,100,0.00,40.00,0,-999,0,0.00
2013-12-23,37,34,32,-100,-100,-100,0,0,100,0.00,40.00,0,-999,0,0.78
2013-12-24,37,32,26,-100,-100,-100,0,0,100,0.00,40.00,0,-999,0,0.05
2013-12-25,26,19,13,-100,-100,-100,0,0,100,0.00,40.00,0,-999,0,0.00
2013-12-26,30,23,13,-100,-100,-100,0,0,100,0.00,40.00,0,-999,0,0.02
2013-12-27,33,24,14,-100,-100,-100,0,0,100,0.00,40.00,0,-999,0,0.01
2013-12-28,45,31,20,-100,-100,-100,0,0,100,0.00,40.00,0,-999,0,0.00
2013-12-29,38,32,25,-100,-100,-100,0,0,100,0.00,40.00,0,-999,0,1.16
2013-12-30,36,30,18,-100,-100,-100,0,0,100,0.00,40.00,0,-999,0,0.72
2013-12-31,26,18,13,-100,-100,-100,0,0,100,0.00,40.00,0,-999,0,0.00
2014-1-1,27,20,11,-100,-100,-100,0,0,100,0.00,40.00,0,-999,0,0.00
2014-1-2,19,13,2,-100,-100,-100,0,0,100,0.00,40.00,0,-999,0,0.10